AirNav   Air Wisconsin Up To $57,000 Bonus
 
 704 users online  

2NE0 Johnson Lake Airport
Elwood, Nebraska, USA

GOING TO ELWOOD?


FAA INFORMATION EFFECTIVE 03 NOVEMBER 2022

Location

FAA Identifier: 2NE0
Lat/Long: 40-41-48.0230N 099-50-03.4290W
40-41.800383N 099-50.057150W
40.6966731,-99.8342858
(estimated)
Elevation: 2625 ft. / 800.1 m (surveyed)
Variation: 08E (1985)
From city: 6 miles N of ELWOOD, NE
Time zone: UTC -6 (UTC -5 during Daylight Saving Time)
Zip code: 68937

Airport Operations

Airport use: Private use. Permission required prior to landing
Activation date: 09/1963
Control tower: no
ARTCC: DENVER CENTER
FSS: COLUMBUS FLIGHT SERVICE STATION
Attendance: MAY-AUG 0500-2100
Wind indicator: yes
Segmented circle: no

Airport Communications

WX AWOS-3 at LXN (6 nm NE): 121.025 (308-324-5975)

Nearby radio navigation aids

VOR radial/distance  VOR name  Freq  Var
OZBr135/(13.0)COZAD VOR109.0009E
EARr262/(37.8)KEARNEY VOR111.2005E

Airport Services

Airframe service: NONE
Powerplant service: NONE

Runway Information

Runway 15/33

Dimensions: 3030 x 200 ft. / 924 x 61 m
Surface: turf
RUNWAY 15  RUNWAY 33
Traffic pattern: leftleft
Obstructions: pline20 ft. bldg, 50 ft. from runway

Airport Ownership and Management from official FAA records

Ownership: Privately-owned
Owner: LANCE WERTH
75075 JOHNSON LAKE DRIVE
JOHNSON LAKE, NE 68937
Phone 308-785-2100
Manager: DAN KELLER
ELWOOD, NE 68937
Phone 308-325-5657

Airport Operational Statistics

Aircraft based on the field: 2
Single engine airplanes: 1
Multi engine airplanes: 1
    

Additional Remarks

FOR CD CTC DENVER ARTCC AT 303-651-4257.

Instrument Procedures

There are no published instrument procedures at 2NE0.

Some nearby airports with instrument procedures:

KLXN - Jim Kelly Field Airport (6 nm NE)
KCZD - Cozad Municipal Airport (13 nm NW)
KGTE - Gothenburg Municipal Airport (20 nm NW)
KHDE - Brewster Field Airport (27 nm SE)
KCSB - Cambridge Municipal Airport (28 nm SW)
 
Loc | Ops | Rwys | IFR | FBO | Links
Com | Nav | Svcs | Stats | Notes
Area around 2NE0 (Johnson Lake Airport)
 
Road maps at: MapQuest Bing Google
 
Aerial photo
WARNING: Photo may not be current or correct
Aerial photo of 2NE0 (Johnson Lake Airport)
Photo by Dave Warner, RAF Illinois Ambassador
Photo taken 16-Aug-2020
looking east.

Do you have a better or more recent aerial photo of Johnson Lake Airport that you would like to share? If so, please send us your photo.

 
Sectional chart

 
Airport distance calculator
Flying to Johnson Lake Airport? Find the distance to fly.

From to 2NE0

Sunrise and sunset
Times for 30-Nov-2022
 Local
(UTC-6)
 Zulu
(UTC)
Morning civil twilight07:1413:14
Sunrise07:4413:44
Sunset17:1223:12
Evening civil twilight17:4223:42

Current date and time
Zulu (UTC)  01-Dec-2022 05:07:43
Local (UTC-6)  30-Nov-2022 23:07:43
 
METAR
KLXN 
6nm NE 
010455Z AUTO 15010KT 10SM CLR M04/M09 A3014 RMK AO2 T10381095
TAF
KEAR 
38nm E 
301720Z 3018/0118 28007KT P6SM SKC FM302200 18007KT P6SM FEW250 FM010300 15010KT P6SM FEW250 FM010500 16012G20KT P6SM FEW250 WS010/19042KT FM010800 17015G23KT P6SM FEW250 WS015/19050KT FM011500 19015G23KT P6SM FEW250
KMCK 
45nm SW 
301722Z 3018/0118 VRB04KT P6SM SKC FM302100 16010KT P6SM FEW250 FM010000 13008KT P6SM SKC FM010500 15010G20KT P6SM FEW250 WS020/18040KT FM011100 16008KT P6SM SKC WS020/22035KT
KLBF 
45nm NW 
301735Z 3018/0118 21007KT P6SM SKC FM302200 15008KT P6SM FEW250 FM010200 14010KT P6SM SCT250 WS020/19040KT FM010900 17007KT P6SM SCT250
NOTAMs
Click for the latest NOTAMs
NOTAMs are issued by the DoD/FAA and will open in a separate window not controlled by AirNav.

 

 
 

Would you like to see your business listed on this page?

 If your business provides an interesting product or service to pilots, flight crews, aircraft, or users of the Johnson Lake Airport, you should consider listing it here.  To start the listing process, click on the button below
 
Add a business
 

Other Pages about Johnson Lake Airport

Update a link
 
Copyright © AirNav, LLC. All rights reserved. Privacy Policy  Contact